Погода в Смоленске

Погода в Смоленске : погода сейчас, прогноз погоды и архив. Всё, что Вы хотите узнать о погоде в Смоленске!

Хотите узнать прогноз погоды в Смоленске? Тогда Вам сюда: Погода в Смоленске

Поиск расширенной информации на нашем сайте:

Полезная информация:

Другие новости

Новости СМИ2

Главная страница сайта

Новости сайта

03.07.2017

Напоминаем, что на нашем специализированном сайте Метеоцентр.Азия вы можете получить высокодетализированные автоматические прогнозы погоды по пунктам России, СНГ и мира в авиационном формате (включающие направление и скорость ветра, видимость, явления погоды, количество и форму облачности, нижнюю и верхнюю границу облачности).

Рекомендуем:

Погода в Смоленске - сегодня

Время (UTC), дата Ветер
(°,м/с) 
Видим.   Явления Облачность Т
(°С)
Тd
(°С)
f(%) Тe
(°С)
Pmin
(гПа)
dP
(гПа)
Po
(мм)
O2
(г/м3)
Тmin Tmax R s Состояние
почвы
09 15.09.19 240 (ЮЗ) 10 км    9/5 600 м кучево-дожд., верхняя 
[Cb cap|Ci]
+12.7 +5.2 60 +13  1018.2  -1.7  742  285           
12 15.09.19 220 (ЮЗ) 4000 м  слаб. ливневой дождь  10/8 600 м кучево-дожд., средняя 
[Cb cap|Ac und]
+12.3 +8 75 +12  1014.9  -3.1  740  284           
15 15.09.19 230 (ЮЗ) 4000 м  слаб. ливневой дождь  10/10 300 м кучево-дожд. 
[Cb cap]
+10.4 +8.6 89 +11  1012.5  -2.5  738  285         
18 15.09.19 230 (ЮЗ) 10 км  в посл. час ливневой дождь  10/10 300 м кучево-дожд. 
[Cb cap]
+11.6 +6.4 70 +11  1008.2  -4.1  735  283    +13.5     
21 15.09.19 220 (ЮЗ) 10 км    10/10 300 м кучево-дожд. 
[Cb cap]
+11.8 +6.5 70 +12  1005.5  -2.6  733  282           
00 16.09.19 250 (З) 10 км    10/10 600 м 
[Sc]
+11.8 +6.9 72 +12  1003.6  -1.8  731  281           
03 16.09.19 250 (З) 10 км  {ливн. осадки}  10/10 300 м кучево-дожд. 
[Cb cap]
+10.7 +8.1 84 +10  1002.3  -1.4  730  282  +10.1    0.8     
06 16.09.19 260 (З) 10 км  {ливн. осадки}  8/8 300 м 
[St]
+11.8 +7.8 76 +12  1001.7  -0.4  730  281  +9.6    0.5    влажная 
09 16.09.19 270 (З) 3{11}  10 км    9/8 600 м кучево-дожд., средняя 
[Cb cap|Ac trans]
+13.3 +6.3 63 +13  1001.6  -0.4  730  279           
12 16.09.19 250 (З) 3{12}  10 км  {ливн. осадки}  9/9 300 м кучево-дожд. 
[Cb cap]
+13 +8.5 74 +13  1001.9  0.3  730  279           
15 16.09.19 260 (З) 10 км  {ливн. осадки}  8/8 600 м кучево-дожд. 
[Cb cap]
+12.7 +7.9 73 +13  1002  0.1  730  280         
18 16.09.19 250 (З) 10 км  {ливн. осадки}  4/0 средняя 
[Ac trans]
+10 +6.9 81 +10  1002.6  0.1  731  283    +14.8     
21 16.09.19 270 (З) 10 км    6/0 средняя 
[Ac trans]
+9.8 +6.5 80 +10  1002.2  -0.4  730  283           
00 17.09.19 260 (З) 10 км    9/0 верхняя 
[Ci fib]
+7.8 +5.9 88 +8  1001.8  -0.6  730  285           
03 17.09.19 270 (З) 10 км    6/0 средняя 
[Ac trans]
+6.8 +4.9 88 +8  1001.8  0.1  730  286  +6.8         
06 17.09.19 250 (З) 10 км    10/10 300 м кучево-дожд. 
[Cb cap]
+7.7 +5.8 88 +8  1001.6  0.1  730  285  +6.4        влажная 
09 17.09.19 260 (З) 10 км    10/10 300 м кучево-дожд. 
[Cb cap]
+10.4 +5.5 72 +11  1001.6  0.3  730  282           
12 17.09.19 270 (З) 10 км  {ливн. осадки}  8/8 600 м кучево-дожд. 
[Cb cap]
+12.7 +4.4 57 +13  1001.1  -0.2  730  280           
15 17.09.19 250 (З) 10 км  {ливн. осадки}  8/8 600 м кучево-дожд. 
[Cb cap]
+10.8 +6.3 74 +11  1001.3  -0.2  730  282      0.3     
18 17.09.19 240 (ЮЗ) 4000 м  дымка{ливн. осадки}  3/0 средняя 
[Ac trans]
+6.3 +5 91 +7  1001.9  0.1  730  287    +13  0.3     
21 17.09.19 тихо ()   4000 м  дымка  8/0 верхняя 
[Ci]
+3.6 +3 96 +4  1000.8  -1.4  729  289           
00 18.09.19 200 (Ю) 4000 м  дымка  10/0 верхняя 
[Cs]
+5.1 +4.6 97 +6  999  -1.5  728  287           
03 18.09.19 170 (Ю) 4000 м  в посл. час ливневой дождь  10/8 300 м кучево-дожд., средняя 
[Cb cap|Ac As]
+6.6 +5.9 95 +8  997.6  -1.2  727  285  +3.3    0.0     
06 18.09.19 170 (Ю) 4000 м  слаб. дождь{ливн. осадки}  10/10 300 м 
[Frnb]
+7.5 +6.6 94 +8  996.7  -0.7  726  284  +3.3    0.0    влажная 
09 18.09.19 тихо ()   4000 м  слаб. дождь  10/10 600 м 
[Sc]
+8.6 +6.4 86 +9  997.2  0.6  727  283           
Время (UTC), дата Ветер
(°,м/с) 
Видим.   Явления Облачность Т
(°С)
Тd
(°С)
f(%) Тe
(°С)
Pmin
(гПа)
dP
(гПа)
Po
(мм)
O2
(г/м3)
Тmin Tmax R s Состояние
почвы

Для получения пояснительной информации подведите курсор к названию столбца.

ПОГОДА в Смоленске - архив

Всё, что Вы хотите узнать о погоде в Смоленске - удобно и подробно!

Выберите нужную дату (начиная с 1 января 2018* года) и нажмите кнопку "Найти".
Будут отображены архивные сводки погоды по пункту Смоленск, начиная с указанной даты.


Отображать данные в формате CSV (для использования в таблицах Excel)


Внимание! Наш архив погоды предназначен исключительно для личного некоммерческого использования в познавательных целях. Если Вам необходимы официальные справки о состоянии погоды (для производственных, юридических, коммерческих и т.п. целей), обращайтесь в органы Росгидромета.

*Примечание: данная дата относится к архиву по метеостанциям СССР (Россия, СНГ, Балтия).
Архив по метеостанциям Зарубежной Европы и Азии (кроме Китая) хранится 10 дней, по другим регионам земного шара (Китай, Африка, Америка, Австралия, Океания) - 1 день.

Смоленск - район местоположения метеостанции


Название, широта, долгота, высота метеостанции:
Смоленск 54.8°ш. 32.1°д. 239 м над ур. моря [Российская Федерация]

Дополнительная информация

В oтличие oт бoльшинства пoгoдных сайтoв мы публикуем пoдрoбную метеoинфoрмацию в детальнoм прoфессиoнальнoм фoрмате.

Характеристики температуры и влажнoсти вoздуха измеряются на высoте 2 м в тени вдали oт зданий и деревьев.
Скoрoсть ветра измеряется на высoте 10 м (на урoвне рoста челoвека скoрoсть ветра ниже в 1.5-2 раза). Если метеoстанция нахoдится в гoрoде или в лесу, тo скoрoсть ветра занижена на 2-4 м/с пo сравнению с oткрытым местoм. Скoрoсть ветра над акватoриями крупных рек и oзёр, а также на вершинах хoлмoв на 2-5 м/с выше, чем в oбычных услoвиях.
Атмoсфернoе давление в разных тoчках местнoсти мoжет значительнo oтличаться oт давления на метеoстанции, в зависимoсти oт услoвий рельефа (при пoдъёме на 10 м давление пoнижается примернo на 1 мм рт.ст.).